Theta_e
340 338 342 344 348 347 347 347 347 348 348 349 350 348 350 351 352 348 346 348 346 348 351 351 348 349 347 347 352 348 347 347 335 339 335 331 329 327
338 336 336 342 346 349 347 347 347 347 348 349 349 351 352 353 351 347 345 349 350 351 352 353 351 349 350 347 348 350 350 349 347 344 345 338 331 327
337 337 340 340 341 345 348 346 346 346 347 348 349 348 348 348 345 339 342 350 351 350 350 350 348 350 350 349 345 350 352 351 350 347 346 345 334 329
335 338 340 342 342 341 346 346 346 348 348 347 347 347 346 343 343 345 344 349 350 351 348 348 348 348 350 350 346 345 351 353 351 350 346 346 342 332
347 345 339 341 342 343 341 339 344 344 344 348 348 347 346 343 342 347 350 351 352 353 350 349 347 346 345 350 349 343 347 354 353 349 349 346 346 339
348 347 338 336 338 339 337 336 338 339 339 339 340 343 343 342 346 351 352 352 352 353 351 349 338 330 342 345 340 342 349 351 355 351 349 348 347 344
345 341 346 340 338 340 346 346 345 343 339 336 335 338 338 335 343 352 352 348 336 340 339 328 326 333 339 347 347 349 350 350 354 354 349 349 348 346
346 344 343 345 348 346 345 350 351 350 344 341 333 335 342 345 345 341 333 331 331 328 332 328 328 331 342 344 343 345 346 350 350 355 351 350 348 347
351 349 348 346 344 345 348 349 346 345 349 350 349 348 346 340 341 336 336 341 343 339 340 330 326 327 326 335 341 346 347 347 348 353 356 351 351 348
351 349 350 349 348 347 348 350 346 348 351 352 352 349 348 344 342 338 342 342 340 335 339 333 328 339 339 325 336 341 345 342 340 348 355 353 353 348
346 347 348 347 346 348 351 349 344 343 343 344 344 340 339 339 341 340 340 338 337 331 333 335 329 339 341 341 335 337 340 341 340 341 347 352 354 352
347 343 344 345 345 345 345 345 346 342 341 340 340 339 340 341 343 346 347 349 347 343 334 338 326 332 339 341 343 344 344 342 342 344 343 340 346 353
349 348 348 348 348 349 349 350 348 346 346 346 345 344 345 345 343 342 341 343 342 340 338 343 341 340 341 341 342 342 344 343 346 342 340 341 347 353
347 348 348 349 350 349 348 350 351 351 350 351 351 349 348 346 345 346 346 345 345 345 347 346 346 344 345 344 343 337 337 340 345 347 346 341 345 348
347 350 349 346 348 349 349 349 350 352 352 352 351 351 349 348 349 348 347 347 347 347 347 348 348 348 348 346 342 338 333 340 345 347 344 345 344 347
339 342 344 347 347 347 348 348 348 349 350 351 351 351 351 350 349 349 349 349 349 349 349 349 349 349 348 347 345 338 334 338 344 348 348 348 345 344
330 334 336 337 338 342 341 343 347 348 349 350 351 351 350 350 349 348 347 348 349 349 349 349 348 346 346 344 343 342 343 343 344 345 344 344 346 346
324 326 324 319 318 321 323 324 328 343 348 350 351 351 352 352 352 352 351 350 349 349 350 348 347 345 347 343 340 340 340 341 342 343 344 346 347 347
322 321 320 320 320 321 321 322 322 321 324 331 345 347 346 346 352 352 352 351 351 351 351 350 350 347 349 349 346 346 346 344 344 345 346 347 346 349
323 323 323 323 323 325 326 325 325 326 328 334 337 339 343 345 348 350 350 350 350 350 350 350 351 352 349 348 348 348 348 348 349 349 350 350 350 351
319 321 322 322 322 322 324 327 329 331 332 335 341 344 344 346 349 349 349 348 345 342 342 348 349 351 349 349 349 350 349 348 348 347 347 349 349 349
316 318 319 319 324 329 334 334 334 338 342 341 339 339 340 345 349 348 348 348 348 342 343 344 349 349 348 348 348 348 349 349 350 349 349 348 349 350
309 315 316 319 322 324 324 326 336 340 341 342 342 340 341 350 348 345 347 347 348 348 349 343 348 348 348 347 347 347 346 345 347 348 347 349 349 350
Wind_Speed
14 10 9 6 1 1 3 4 4 4 3 2 5 7 7 5 9 14 15 15 11 10 11 12 13 14 18 20 22 19 18 17 13 14 14 14 14 16
18 16 14 12 8 4 2 1 0 0 1 3 4 1 5 7 13 17 19 11 12 12 12 12 14 13 16 17 18 19 19 17 16 15 15 15 15 15
16 17 16 15 13 10 8 6 6 7 6 5 7 8 12 15 17 17 15 8 9 13 11 9 12 13 14 16 16 16 18 21 17 16 16 17 16 16
16 17 16 13 13 13 13 13 11 9 12 15 15 15 16 17 16 16 11 12 15 13 15 14 16 15 12 14 14 16 15 18 20 16 16 16 18 18
15 16 17 17 17 16 16 18 16 16 15 17 18 18 20 17 16 17 15 15 13 14 15 18 21 20 17 12 15 17 15 15 19 18 16 16 17 18
17 15 15 19 20 19 18 17 21 22 23 23 24 25 25 23 22 17 15 14 15 16 21 24 24 20 18 18 18 14 16 13 15 18 17 16 16 17
18 18 17 15 16 16 14 11 11 14 18 21 23 24 24 23 20 20 23 26 25 26 27 22 21 18 9 8 9 12 14 15 14 14 16 16 16 16
16 19 19 20 20 18 17 17 17 18 16 16 17 19 20 20 20 23 25 26 27 23 23 23 18 15 12 11 12 14 15 16 15 13 14 14 16 15
20 19 18 19 20 20 22 22 22 21 21 21 22 21 21 19 19 21 19 19 23 23 22 27 23 22 17 16 13 11 13 11 9 12 14 14 16 18
25 25 27 25 23 22 21 23 25 25 23 23 24 25 24 21 20 19 20 24 27 26 24 31 27 17 14 15 15 11 10 11 11 11 14 15 15 17
31 32 31 31 30 28 29 31 31 31 29 29 30 30 29 29 28 28 27 28 31 33 32 30 20 17 15 12 10 15 16 15 15 14 14 15 17 18
30 31 32 35 38 36 36 36 38 38 35 34 35 36 35 34 32 32 30 33 34 39 36 26 27 24 28 23 17 17 16 16 18 17 16 17 19 19
30 30 32 33 35 36 36 38 41 40 40 39 37 37 35 34 32 32 32 33 36 38 32 31 28 29 32 33 26 22 22 20 20 20 23 21 18 20
28 29 30 30 31 32 33 33 33 32 34 36 38 37 34 31 29 29 29 30 31 32 30 31 35 34 34 36 33 28 26 24 21 20 17 16 18 21
21 24 30 32 33 35 35 35 34 33 37 38 38 40 41 41 40 41 38 36 36 37 36 35 37 37 40 43 43 39 34 25 24 22 19 19 18 19
20 25 28 31 32 33 35 37 38 40 41 42 46 46 44 43 41 40 40 40 41 43 41 39 38 37 38 39 37 35 30 32 25 25 25 23 22 22
28 28 30 32 34 34 33 35 35 37 41 43 44 43 43 45 49 49 48 44 43 43 43 38 33 30 30 30 33 30 28 29 27 25 24 24 23 23
34 35 35 34 34 34 33 32 31 32 33 35 37 37 37 38 41 41 41 40 40 36 34 31 27 23 25 29 30 30 31 30 28 25 26 27 26 23
37 38 37 36 36 34 34 33 35 34 32 34 36 38 36 37 37 36 35 34 35 34 34 31 28 23 27 35 32 29 30 29 27 27 27 28 27 24
38 39 39 38 37 36 35 35 35 34 31 30 30 34 38 39 41 38 36 34 32 34 35 34 33 30 28 34 35 33 30 28 25 25 24 26 26 25
35 38 40 40 37 37 38 36 35 34 32 30 29 29 30 34 37 40 36 31 31 37 43 37 35 30 25 29 34 37 31 26 29 28 27 26 24 26
35 31 33 36 31 28 30 30 32 30 29 28 29 30 29 31 31 32 37 37 41 40 41 38 34 32 32 30 32 30 29 28 30 34 32 30 28 31
38 38 36 33 30 30 31 34 29 29 31 32 30 31 29 26 30 31 29 31 33 38 41 47 39 31 28 29 29 25 24 24 28 32 31 27 30 32
Wind_Direction
233 242 232 237 276 12 92 83 85 184 225 340 262 263 250 295 326 333 348 356 343 350 350 347 351 8 8 12 14 13 16 13 7 1 360 357 355 350
232 244 242 243 244 236 212 215 281 168 195 336 359 300 258 290 305 317 331 354 359 348 333 338 338 342 355 1 9 11 11 8 9 358 356 356 354 354
227 239 239 243 245 244 239 251 275 273 277 286 295 294 295 298 305 307 310 331 341 340 335 342 346 342 333 346 358 359 358 5 0 2 358 354 353 351
229 246 233 236 253 256 248 253 262 273 279 284 288 287 298 307 305 302 289 301 313 315 320 323 333 332 327 330 341 346 341 348 357 354 357 353 353 353
241 244 241 237 248 256 263 264 261 274 276 280 285 290 294 297 299 311 309 312 311 300 307 314 323 321 317 310 326 328 331 329 346 351 349 351 352 352
243 246 243 238 246 255 264 263 262 268 275 276 279 284 289 292 301 305 299 305 304 298 303 310 315 312 303 305 310 310 324 314 321 345 347 347 349 350
256 252 246 243 243 246 251 259 269 274 275 278 277 278 283 286 283 290 298 306 305 302 303 306 313 315 319 328 322 311 313 308 301 324 343 346 344 347
257 258 257 256 257 257 251 259 263 274 280 283 287 281 281 284 286 292 298 302 306 305 312 311 316 299 288 287 304 301 296 299 293 301 324 337 342 340
260 265 266 265 261 258 258 263 265 265 270 277 279 280 286 287 291 290 292 294 295 300 305 308 316 306 287 268 280 292 286 288 300 292 301 318 334 336
262 260 261 265 266 268 271 270 263 260 266 271 275 279 279 284 286 287 285 288 291 295 299 304 317 314 322 276 260 280 283 297 310 293 287 300 314 326
259 261 264 266 267 266 269 273 271 267 268 271 273 275 278 279 280 282 279 282 287 292 296 302 307 306 313 324 299 280 287 289 294 292 291 292 297 309
259 258 260 264 268 268 267 269 271 273 277 278 278 277 278 279 279 278 279 277 280 286 292 291 300 297 301 306 307 302 303 301 290 287 285 296 287 289
273 269 267 265 265 266 266 268 270 276 278 281 280 279 279 279 277 275 273 272 275 279 287 287 288 287 289 292 294 297 292 296 300 296 275 279 275 276
273 273 273 271 271 271 269 266 267 273 271 270 273 272 271 270 272 275 277 278 277 278 288 283 282 281 284 286 286 292 294 294 291 297 302 280 267 271
283 281 277 274 270 267 266 267 265 264 264 267 269 269 269 272 276 278 279 280 280 281 282 281 279 279 278 278 280 284 287 286 286 287 290 292 284 281
273 274 280 276 276 276 274 271 267 264 263 265 265 266 270 271 271 274 278 281 282 284 284 282 281 278 274 272 274 275 276 279 279 279 285 285 281 282
275 272 275 276 282 283 286 282 275 274 267 266 269 271 273 274 274 274 273 276 279 282 285 285 282 276 269 266 271 272 274 274 274 274 276 280 282 285
273 275 279 281 281 284 287 288 288 281 279 282 276 271 273 280 283 279 275 273 275 275 279 284 286 266 269 263 259 265 268 271 274 274 275 274 281 282
270 271 274 277 279 281 282 285 287 287 288 284 280 278 281 286 286 282 278 274 272 272 275 281 281 262 270 268 264 264 268 271 274 270 274 274 278 280
265 269 272 275 277 279 280 283 287 288 285 288 289 283 275 275 280 281 278 274 276 279 280 280 275 267 259 263 274 275 271 276 271 272 268 275 275 268
265 266 270 272 277 280 279 282 283 286 283 283 284 286 286 283 280 276 275 268 274 276 275 269 268 270 269 265 266 270 272 269 270 271 275 267 264 263
269 270 268 269 271 284 283 277 278 284 288 282 282 284 285 285 284 283 275 277 275 267 273 272 268 268 272 271 271 279 281 281 278 275 267 270 260 261
271 267 270 266 267 269 273 276 275 277 277 280 280 283 284 287 289 287 283 273 274 269 269 266 261 262 265 271 271 275 277 288 296 294 287 261 253 256